Theta_e
346 346 340 336 336 336 335 337 332 323 324 334 333 342 336 335 339 337 338 340 338 333 331 331 331 331 331 331 332 332 332 331 332 333 335 338 343 346
338 346 345 339 339 336 336 339 336 332 325 331 331 337 343 337 340 339 338 339 336 334 333 331 331 331 331 332 332 332 332 332 332 333 333 334 337 341
346 343 342 347 337 335 336 339 336 335 327 330 336 337 346 344 341 343 340 337 337 335 334 332 330 330 330 330 330 330 330 330 331 331 331 332 333 335
345 346 343 338 348 347 338 344 338 340 330 334 335 333 340 343 345 345 338 336 333 335 335 332 329 328 327 327 326 326 326 327 327 327 328 329 330 330
344 344 343 345 344 340 346 340 336 338 342 330 330 333 334 335 336 340 342 339 336 335 329 329 328 327 326 324 323 322 321 321 322 322 323 324 326 328
343 343 342 343 342 345 344 344 342 337 336 331 331 330 331 336 331 330 328 332 326 330 332 329 330 330 327 325 324 323 319 317 317 317 318 319 321 323
342 345 346 345 340 339 337 340 344 337 331 328 328 327 327 331 328 329 327 328 330 331 331 331 331 332 330 327 329 328 323 320 318 316 316 315 316 318
344 343 345 342 340 334 332 331 334 335 336 330 327 326 332 331 331 330 327 323 320 329 329 325 328 326 329 332 329 325 323 322 320 318 316 315 315 315
346 345 342 339 339 340 333 329 329 328 327 331 330 331 330 332 333 330 328 325 321 324 325 321 326 326 331 329 326 324 321 320 319 318 317 316 315 314
343 347 346 345 344 341 337 338 337 337 337 332 334 333 333 332 328 326 326 325 324 324 327 319 326 325 330 331 326 324 321 320 318 317 316 315 313 311
346 347 345 342 333 327 334 335 334 334 330 325 324 321 319 320 321 321 319 317 316 318 325 320 320 322 326 326 328 324 320 317 315 315 316 315 312 311
346 348 329 334 321 321 328 331 330 331 330 330 329 325 323 325 321 324 322 318 316 316 322 321 318 319 317 324 326 325 324 318 315 314 314 313 311 318
342 341 338 318 314 313 314 329 327 324 327 325 323 323 325 323 322 326 330 322 316 316 321 319 316 319 322 317 321 321 319 319 321 320 314 311 309 313
334 334 333 313 312 310 313 313 310 311 321 320 320 319 317 318 319 321 327 324 322 322 324 323 319 321 321 318 314 316 317 318 319 320 324 321 307 309
329 314 314 310 308 309 312 313 309 319 319 320 318 316 316 317 324 322 325 327 326 325 324 331 327 325 322 318 313 312 312 317 321 324 324 324 324 319
316 321 319 317 315 314 318 316 319 321 320 316 314 316 316 314 312 312 310 310 310 314 327 329 328 327 320 320 316 311 315 312 316 318 323 326 332 326
328 329 325 324 323 323 323 325 321 321 317 317 315 313 312 311 309 310 309 310 309 313 315 319 325 326 324 321 312 312 313 311 313 315 317 330 335 331
324 323 321 322 324 322 320 319 320 318 316 316 314 312 309 308 307 307 308 308 309 313 314 318 317 316 313 315 317 311 312 309 310 314 315 326 329 337
319 319 319 324 326 323 320 318 315 316 318 313 311 310 308 307 306 306 307 307 307 311 315 316 312 307 303 302 311 314 309 309 309 310 311 313 326 329
317 318 320 323 321 318 317 316 315 314 312 310 308 308 307 306 305 306 306 307 306 310 312 314 312 310 303 304 306 310 308 307 306 306 307 309 316 322
319 318 318 317 316 316 315 314 313 311 307 306 307 307 306 306 305 306 306 302 304 307 308 312 312 308 309 313 307 306 308 307 307 306 306 305 310 328
317 316 316 316 315 314 314 312 309 307 307 307 306 306 306 306 305 305 305 305 306 306 308 313 310 306 307 306 304 305 304 306 308 308 308 306 308 312
318 317 316 316 315 313 310 307 306 306 307 306 305 305 306 305 306 305 305 305 305 305 308 309 305 304 305 307 304 305 302 303 303 303 304 307 308 309
Wind_Speed
5 5 6 6 5 5 4 3 2 7 9 4 3 4 3 5 4 6 9 7 13 12 11 12 12 13 13 12 12 11 12 13 13 14 14 16 18 19
6 4 4 6 6 6 5 4 4 4 6 8 8 5 2 6 6 6 10 11 15 16 16 15 15 15 14 14 13 14 14 14 14 14 14 15 15 17
8 7 6 5 6 7 7 4 3 5 8 8 4 9 6 7 9 8 9 9 11 14 17 16 15 15 15 16 16 16 17 16 15 16 16 16 16 16
10 7 7 7 7 6 7 8 6 7 9 10 9 9 9 9 7 9 8 7 8 12 13 17 19 20 18 18 17 16 17 18 18 17 17 18 17 17
8 7 8 8 6 7 7 9 8 6 5 9 11 9 7 8 11 8 6 10 8 16 18 18 18 18 18 19 20 20 19 19 19 19 18 18 18 19
8 9 9 10 8 8 8 9 9 8 8 9 11 7 8 9 8 8 9 8 8 13 12 11 12 18 25 24 23 24 21 21 22 21 19 19 20 21
11 11 10 10 8 6 7 9 7 7 10 10 9 9 10 6 11 10 10 9 8 10 11 10 11 10 10 14 21 24 24 22 20 22 23 22 22 23
11 8 8 9 11 10 9 11 7 8 10 9 10 12 11 10 9 8 9 11 12 10 11 11 11 12 11 12 14 9 9 19 20 20 23 24 24 24
11 10 10 9 7 11 11 10 10 12 13 9 11 11 12 9 10 11 11 11 12 11 12 13 12 12 11 13 16 12 10 14 17 19 21 23 24 24
11 12 12 11 8 9 10 10 10 10 9 9 11 12 11 8 9 11 12 13 13 11 10 13 10 13 11 13 12 10 19 24 19 21 27 27 26 25
12 11 9 7 6 5 7 8 10 11 9 11 5 4 7 12 13 10 11 12 10 11 9 12 12 13 13 12 12 17 16 21 24 28 30 29 28 27
12 9 8 7 8 7 5 7 10 11 9 9 7 9 14 16 20 15 12 10 11 12 11 10 10 13 14 12 13 13 15 21 24 27 29 28 26 16
4 3 5 12 11 9 6 7 7 6 6 8 10 12 10 9 9 6 10 9 12 12 12 12 13 13 10 14 11 13 14 17 15 16 21 27 25 23
3 6 3 11 7 7 7 4 2 4 7 10 11 9 9 9 9 8 9 11 12 14 15 15 11 12 13 14 16 13 15 15 14 15 13 12 19 26
2 8 12 5 7 6 6 6 5 6 9 9 8 8 8 8 8 11 11 10 11 13 10 9 8 12 11 12 14 15 17 12 13 12 12 12 13 11
8 9 8 3 0 1 7 7 7 8 6 8 9 8 9 9 9 10 10 10 11 10 9 12 9 11 11 11 12 15 12 10 15 14 12 14 14 12
8 6 7 9 9 7 6 4 7 8 6 6 8 8 9 9 9 9 10 11 11 11 9 7 9 13 10 14 12 13 9 11 14 15 15 13 9 13
3 6 9 7 3 4 7 7 5 4 6 6 7 9 9 9 9 9 10 10 10 10 9 9 10 11 11 11 11 10 9 11 13 15 14 11 5 8
6 8 9 2 2 3 5 5 6 5 4 6 8 8 8 8 8 9 9 9 10 11 8 7 9 8 10 12 8 5 12 11 11 12 11 10 8 5
7 8 5 1 3 4 5 6 5 5 6 6 7 8 7 8 8 9 9 9 10 11 9 8 7 8 6 7 8 10 10 12 11 11 12 11 11 8
3 3 4 4 5 3 4 4 5 6 6 6 7 7 7 8 8 8 9 9 10 9 11 10 9 11 6 9 8 9 11 15 13 10 11 11 8 1
2 3 3 3 4 3 4 4 5 6 6 5 5 6 6 8 8 9 9 10 10 10 10 8 10 8 5 7 11 13 11 12 15 15 15 17 7 7
2 3 3 2 3 3 4 5 6 5 3 4 5 6 6 7 8 8 9 10 10 9 9 8 7 4 6 8 11 9 14 13 11 12 11 21 22 24
Wind_Direction
242 223 253 269 269 282 284 279 286 312 308 200 270 184 208 246 230 292 296 281 210 227 233 241 250 257 266 270 274 277 282 288 286 284 284 283 280 275
253 237 253 276 294 268 260 263 250 267 292 298 301 326 352 314 290 273 275 271 210 222 230 229 230 240 246 254 262 268 268 269 274 274 276 278 278 277
256 266 256 274 273 287 310 336 265 261 282 291 340 312 330 301 283 264 256 259 271 235 228 225 222 231 237 247 250 255 258 258 261 264 268 271 273 275
240 244 253 246 218 246 267 279 284 301 291 290 283 282 274 285 269 274 274 276 277 294 209 213 218 225 229 236 246 248 248 250 252 254 254 259 263 267
237 237 246 249 231 267 293 289 287 275 239 258 285 295 300 303 288 265 267 280 282 267 238 217 220 223 233 235 237 241 239 244 245 246 247 248 252 256
229 238 241 253 251 239 244 257 258 266 281 273 261 291 289 280 274 302 295 291 275 281 302 290 264 235 233 237 236 236 236 236 239 244 243 239 243 247
234 240 228 240 279 282 270 274 296 263 266 283 294 286 281 315 304 317 299 305 310 298 292 299 299 297 288 247 246 236 236 241 239 237 239 238 235 237
228 231 250 243 235 229 234 250 250 264 272 278 286 290 299 295 307 299 291 298 298 289 300 300 296 288 289 279 269 293 227 231 240 241 237 235 233 232
219 233 247 252 244 259 225 217 231 226 232 263 276 282 299 305 298 294 297 304 293 299 303 289 288 281 285 291 278 255 242 249 257 261 255 239 235 228
237 235 239 254 257 264 269 250 251 256 226 228 246 259 259 293 305 293 291 281 269 262 277 279 293 290 286 268 268 309 299 285 270 264 264 255 244 233
240 241 243 260 263 196 252 258 263 267 263 221 233 277 262 250 251 276 277 285 293 284 276 279 283 281 277 288 297 283 282 282 276 271 263 257 244 236
213 222 223 246 147 225 228 243 263 273 287 298 242 250 244 246 239 235 248 272 283 289 282 289 297 298 297 293 281 294 281 271 267 263 259 251 240 235
249 217 189 175 175 186 222 260 279 327 289 282 271 262 269 277 274 223 223 265 287 296 308 308 297 295 288 302 289 290 291 285 277 273 257 247 230 216
248 269 215 153 174 178 200 134 148 287 274 269 268 291 294 303 304 329 321 288 275 270 275 274 279 286 291 298 302 306 297 288 278 269 260 265 209 211
2 86 109 162 154 194 215 217 236 262 261 273 295 302 308 316 308 278 273 283 274 269 273 306 297 293 302 301 304 309 304 316 292 268 264 252 242 207
151 156 139 162 206 88 151 204 242 259 308 316 295 292 304 298 303 304 306 306 296 287 325 301 304 313 309 308 307 301 295 314 305 297 285 269 257 199
211 155 200 213 216 206 220 220 210 264 282 296 301 310 301 305 306 311 309 294 301 306 302 310 331 324 318 315 300 299 299 316 311 306 300 281 228 191
210 258 267 264 143 193 198 214 227 253 262 284 314 297 306 307 308 310 297 310 310 314 330 348 341 322 329 308 277 300 321 316 315 313 312 289 223 210
241 260 265 301 163 206 253 291 297 297 13 287 280 301 298 300 302 306 313 314 324 320 338 319 347 340 319 314 294 235 321 324 318 318 326 327 298 223
250 267 293 261 273 290 298 293 298 312 302 301 307 295 297 304 305 311 317 327 326 314 325 334 324 343 310 303 308 309 321 327 330 325 331 318 285 286
269 262 280 303 307 296 289 297 310 297 316 314 287 294 309 308 309 320 316 317 312 338 336 4 16 332 289 299 325 319 332 339 334 337 337 326 305 231
349 307 313 319 316 310 301 297 283 268 264 268 300 313 309 312 318 323 323 325 333 349 348 9 10 348 348 337 329 330 341 339 345 346 352 359 324 303
186 278 318 268 257 255 275 279 268 266 285 294 313 320 321 313 327 325 322 331 342 351 0 15 5 341 337 349 331 346 343 350 352 349 5 359 352 27